Time,TemperatureF,DewpointF,PressureIn,WindDirection,WindDirectionDegrees,WindSpeedMPH,WindSpeedGustMPH,Humidity,HourlyPrecipIn,Conditions,Clouds,dailyrainin,SolarRadiationWatts/m^2,SoftwareType,DateUTC
2013-02-09 00:01:00,31.8,25.7,30.04,SW,223,2.0,25.0,78,0.00,,,0.00,0.0,meteohub,2013-02-09 05:01:00,
2013-02-09 00:04:00,31.6,25.5,30.05,WSW,246,3.0,25.0,78,0.00,,,0.00,0.0,meteohub,2013-02-09 05:04:00,
2013-02-09 00:07:00,31.6,25.5,30.05,South,176,2.0,25.0,78,0.00,,,0.00,0.0,meteohub,2013-02-09 05:07:00,
2013-02-09 00:13:00,31.5,25.3,30.04,East,91,1.0,16.0,78,0.00,,,0.00,0.0,meteohub,2013-02-09 05:13:00,
2013-02-09 00:19:00,31.5,25.3,30.05,East,94,0.0,15.0,78,0.00,,,0.00,0.0,meteohub,2013-02-09 05:19:00,
2013-02-09 00:22:00,31.5,25.3,30.05,South,190,2.0,15.0,78,0.00,,,0.00,0.0,meteohub,2013-02-09 05:22:00,
2013-02-09 00:28:00,31.5,25.3,30.05,WSW,247,1.0,10.0,78,0.00,,,0.00,0.0,meteohub,2013-02-09 05:28:00,
2013-02-09 00:34:00,31.3,25.2,30.05,NE,53,16.0,16.0,78,0.00,,,0.00,0.0,meteohub,2013-02-09 05:34:00,
2013-02-09 00:40:00,31.3,25.2,30.05,South,187,12.0,23.0,78,0.00,,,0.00,0.0,meteohub,2013-02-09 05:40:00,
2013-02-09 00:46:00,30.9,25.2,30.05,SSW,205,3.0,23.0,79,0.00,,,0.00,0.0,meteohub,2013-02-09 05:46:00,
2013-02-09 00:52:00,30.9,25.2,30.04,West,263,4.0,14.0,79,0.00,,,0.00,0.0,meteohub,2013-02-09 05:52:00,
2013-02-09 00:57:00,30.7,25.0,30.04,South,178,1.0,18.0,79,0.00,,,0.00,0.0,meteohub,2013-02-09 05:57:00,
2013-02-09 01:02:00,30.7,25.0,30.04,NNE,30,4.0,22.0,79,0.00,,,0.00,0.0,meteohub,2013-02-09 06:02:00,
2013-02-09 01:07:00,30.6,25.2,30.04,NNW,346,12.0,22.0,80,0.00,,,0.00,0.0,meteohub,2013-02-09 06:07:00,
2013-02-09 01:12:00,30.6,25.2,30.04,WNW,283,1.0,22.0,80,0.00,,,0.00,0.0,meteohub,2013-02-09 06:12:00,
2013-02-09 01:17:00,30.4,25.0,30.04,NNW,344,5.0,16.0,80,0.00,,,0.00,0.0,meteohub,2013-02-09 06:17:00,
2013-02-09 01:22:00,30.4,25.0,30.05,NNW,339,5.0,16.0,80,0.00,,,0.00,0.0,meteohub,2013-02-09 06:22:00,
2013-02-09 01:27:00,30.4,25.3,30.05,West,266,2.0,12.0,81,0.00,,,0.00,0.0,meteohub,2013-02-09 06:27:00,
2013-02-09 01:32:00,30.2,25.2,30.05,NE,46,4.0,20.0,81,0.00,,,0.00,0.0,meteohub,2013-02-09 06:32:00,
2013-02-09 01:37:00,30.2,25.2,30.05,NW,325,1.0,21.0,81,0.00,,,0.00,0.0,meteohub,2013-02-09 06:37:00,
2013-02-09 01:42:00,30.0,25.0,30.06,WSW,250,2.0,21.0,81,0.00,,,0.00,0.0,meteohub,2013-02-09 06:42:00,
2013-02-09 01:47:00,30.0,25.0,30.06,SW,236,10.0,21.0,81,0.00,,,0.00,0.0,meteohub,2013-02-09 06:47:00,
2013-02-09 01:52:00,30.0,25.0,30.06,NNW,348,3.0,19.0,81,0.00,,,0.00,0.0,meteohub,2013-02-09 06:52:00,
2013-02-09 01:57:00,30.0,25.0,30.06,NNW,348,3.0,19.0,81,0.00,,,0.00,0.0,meteohub,2013-02-09 06:57:00,
2013-02-09 02:02:00,30.0,25.0,30.06,NW,325,2.0,19.0,81,0.00,,,0.00,0.0,meteohub,2013-02-09 07:02:00,
2013-02-09 02:07:00,29.8,24.8,30.06,NW,317,2.0,21.0,81,0.00,,,0.00,0.0,meteohub,2013-02-09 07:07:00,
2013-02-09 02:12:00,30.0,24.6,30.06,NNW,347,3.0,21.0,80,0.00,,,0.00,0.0,meteohub,2013-02-09 07:12:00,
2013-02-09 02:17:00,29.8,24.4,30.06,NW,318,7.0,21.0,80,0.00,,,0.00,0.0,meteohub,2013-02-09 07:17:00,
2013-02-09 02:22:00,29.8,24.4,30.07,SSW,207,5.0,18.0,80,0.00,,,0.00,0.0,meteohub,2013-02-09 07:22:00,
2013-02-09 02:27:00,29.8,24.4,30.07,NNW,336,3.0,17.0,80,0.00,,,0.00,0.0,meteohub,2013-02-09 07:27:00,
2013-02-09 02:32:00,29.8,24.1,30.07,NE,42,12.0,20.0,79,0.00,,,0.00,0.0,meteohub,2013-02-09 07:32:00,
2013-02-09 02:37:00,29.8,24.1,30.08,North,355,5.0,20.0,79,0.00,,,0.00,0.0,meteohub,2013-02-09 07:37:00,
2013-02-09 02:42:00,29.8,24.1,30.07,SW,234,5.0,20.0,79,0.00,,,0.00,0.0,meteohub,2013-02-09 07:42:00,
2013-02-09 02:47:00,29.8,23.9,30.07,WNW,292,4.0,20.0,78,0.00,,,0.00,0.0,meteohub,2013-02-09 07:47:00,
2013-02-09 02:52:00,29.8,23.9,30.08,NNW,344,5.0,18.0,78,0.00,,,0.00,0.0,meteohub,2013-02-09 07:52:00,
2013-02-09 02:57:00,29.8,23.9,30.07,West,266,3.0,18.0,78,0.00,,,0.00,0.0,meteohub,2013-02-09 07:57:00,
2013-02-09 03:02:00,29.8,23.5,30.07,North,355,3.0,21.0,77,0.00,,,0.00,0.0,meteohub,2013-02-09 08:02:00,
2013-02-09 03:07:00,30.0,23.7,30.08,WNW,288,4.0,21.0,77,0.00,,,0.00,0.0,meteohub,2013-02-09 08:07:00,
2013-02-09 03:12:00,30.0,23.7,30.08,North,5,3.0,21.0,77,0.00,,,0.00,0.0,meteohub,2013-02-09 08:12:00,
2013-02-09 03:17:00,29.8,23.5,30.08,North,11,4.0,21.0,77,0.00,,,0.00,0.0,meteohub,2013-02-09 08:17:00,
2013-02-09 03:22:00,30.0,23.7,30.08,North,355,2.0,21.0,77,0.00,,,0.00,0.0,meteohub,2013-02-09 08:22:00,
2013-02-09 03:27:00,30.0,23.7,30.09,NW,313,2.0,21.0,77,0.00,,,0.00,0.0,meteohub,2013-02-09 08:27:00,
2013-02-09 03:32:00,30.0,23.7,30.09,West,260,1.0,17.0,77,0.00,,,0.00,0.0,meteohub,2013-02-09 08:32:00,
2013-02-09 03:37:00,30.0,23.4,30.08,NNW,336,5.0,21.0,76,0.00,,,0.00,0.0,meteohub,2013-02-09 08:37:00,
2013-02-09 03:42:00,30.0,23.7,30.08,North,355,0.0,21.0,77,0.00,,,0.00,0.0,meteohub,2013-02-09 08:42:00,
2013-02-09 03:47:00,29.8,23.2,30.08,WSW,256,5.0,19.0,76,0.00,,,0.00,0.0,meteohub,2013-02-09 08:47:00,
2013-02-09 03:52:00,29.8,23.2,30.07,NNW,340,3.0,16.0,76,0.00,,,0.00,0.0,meteohub,2013-02-09 08:52:00,
2013-02-09 03:57:00,29.8,23.2,30.07,West,264,4.0,16.0,76,0.00,,,0.00,0.0,meteohub,2013-02-09 08:57:00,
2013-02-09 04:02:00,29.8,23.2,30.06,NNW,332,8.0,23.0,76,0.00,,,0.00,0.0,meteohub,2013-02-09 09:02:00,
2013-02-09 04:07:00,30.0,23.4,30.05,SSW,207,5.0,23.0,76,0.00,,,0.00,0.0,meteohub,2013-02-09 09:07:00,
2013-02-09 04:12:00,29.8,23.2,30.06,North,11,4.0,26.0,76,0.00,,,0.00,0.0,meteohub,2013-02-09 09:12:00,
2013-02-09 04:17:00,29.8,23.5,30.06,North,5,12.0,26.0,77,0.00,,,0.00,0.0,meteohub,2013-02-09 09:17:00,
2013-02-09 04:22:00,29.8,23.5,30.06,SW,223,4.0,26.0,77,0.00,,,0.00,0.0,meteohub,2013-02-09 09:22:00,
2013-02-09 04:27:00,29.8,23.5,30.07,SW,229,7.0,26.0,77,0.00,,,0.00,0.0,meteohub,2013-02-09 09:27:00,
2013-02-09 04:32:00,29.7,23.4,30.08,North,5,2.0,26.0,77,0.00,,,0.00,0.0,meteohub,2013-02-09 09:32:00,
2013-02-09 04:37:00,29.7,23.4,30.08,WNW,283,3.0,19.0,77,0.00,,,0.00,0.0,meteohub,2013-02-09 09:37:00,
2013-02-09 04:42:00,29.7,23.4,30.08,WNW,285,7.0,19.0,77,0.00,,,0.00,0.0,meteohub,2013-02-09 09:42:00,
2013-02-09 04:47:00,29.5,23.5,30.08,SSW,202,4.0,27.0,78,0.00,,,0.00,0.0,meteohub,2013-02-09 09:47:00,
2013-02-09 04:52:00,29.5,23.5,30.09,North,350,7.0,27.0,78,0.00,,,0.00,0.0,meteohub,2013-02-09 09:52:00,
2013-02-09 04:57:00,29.5,23.5,30.09,West,267,6.0,22.0,78,0.00,,,0.00,0.0,meteohub,2013-02-09 09:57:00,
2013-02-09 05:02:00,29.5,23.5,30.09,NNE,26,13.0,26.0,78,0.00,,,0.00,0.0,meteohub,2013-02-09 10:02:00,
2013-02-09 05:07:00,29.5,23.5,30.10,West,274,3.0,26.0,78,0.00,,,0.00,0.0,meteohub,2013-02-09 10:07:00,
2013-02-09 05:12:00,29.5,23.2,30.10,ENE,69,5.0,21.0,77,0.00,,,0.00,0.0,meteohub,2013-02-09 10:12:00,
2013-02-09 05:17:00,29.5,23.5,30.11,NW,319,6.0,21.0,78,0.00,,,0.00,0.0,meteohub,2013-02-09 10:17:00,
2013-02-09 05:22:00,29.3,23.0,30.11,East,90,5.0,20.0,77,0.00,,,0.00,0.0,meteohub,2013-02-09 10:22:00,
2013-02-09 05:27:00,29.5,23.2,30.11,NNE,15,4.0,28.0,77,0.00,,,0.00,0.0,meteohub,2013-02-09 10:27:00,
2013-02-09 05:32:00,29.3,23.0,30.11,NNW,343,2.0,28.0,77,0.00,,,0.00,0.0,meteohub,2013-02-09 10:32:00,
2013-02-09 05:37:00,29.5,23.2,30.12,North,350,14.0,28.0,77,0.00,,,0.00,0.0,meteohub,2013-02-09 10:37:00,
2013-02-09 05:42:00,29.5,22.8,30.11,North,5,2.0,26.0,76,0.00,,,0.00,0.0,meteohub,2013-02-09 10:42:00,
2013-02-09 05:47:00,29.5,22.8,30.12,NE,42,3.0,26.0,76,0.00,,,0.00,0.0,meteohub,2013-02-09 10:47:00,
2013-02-09 05:52:00,29.3,22.6,30.12,North,355,3.0,26.0,76,0.00,,,0.00,0.0,meteohub,2013-02-09 10:52:00,
2013-02-09 05:57:00,29.3,22.6,30.12,North,350,11.0,26.0,76,0.00,,,0.00,0.0,meteohub,2013-02-09 10:57:00,
2013-02-09 06:02:00,29.3,22.6,30.12,NNW,338,13.0,25.0,76,0.00,,,0.00,0.0,meteohub,2013-02-09 11:02:00,
2013-02-09 06:07:00,29.3,22.6,30.13,NW,325,7.0,25.0,76,0.00,,,0.00,0.0,meteohub,2013-02-09 11:07:00,
2013-02-09 06:12:00,29.3,22.6,30.13,NNW,348,3.0,26.0,76,0.00,,,0.00,0.0,meteohub,2013-02-09 11:12:00,
2013-02-09 06:17:00,29.3,22.3,30.13,North,9,18.0,26.0,75,0.00,,,0.00,0.0,meteohub,2013-02-09 11:17:00,
2013-02-09 06:22:00,29.3,22.3,30.14,NNE,19,18.0,30.0,75,0.00,,,0.00,0.0,meteohub,2013-02-09 11:22:00,
2013-02-09 06:27:00,29.3,22.3,30.14,NNW,340,11.0,30.0,75,0.00,,,0.00,0.0,meteohub,2013-02-09 11:27:00,
2013-02-09 06:32:00,29.3,22.3,30.14,NNE,26,8.0,30.0,75,0.00,,,0.00,0.0,meteohub,2013-02-09 11:32:00,
2013-02-09 06:37:00,29.3,22.1,30.14,North,10,15.0,26.0,74,0.00,,,0.00,0.0,meteohub,2013-02-09 11:37:00,
2013-02-09 06:42:00,29.3,22.1,30.14,NNW,343,6.0,26.0,74,0.00,,,0.00,0.0,meteohub,2013-02-09 11:42:00,
2013-02-09 06:47:00,29.3,22.1,30.15,North,0,10.0,27.0,74,0.00,,,0.00,0.0,meteohub,2013-02-09 11:47:00,
2013-02-09 06:52:00,29.3,22.1,30.15,North,9,20.0,27.0,74,0.00,,,0.00,0.0,meteohub,2013-02-09 11:52:00,
2013-02-09 06:57:00,29.3,21.7,30.14,North,5,15.0,27.0,73,0.00,,,0.00,0.0,meteohub,2013-02-09 11:57:00,
2013-02-09 07:02:00,29.3,21.7,30.15,NNE,15,6.0,27.0,73,0.00,,,0.00,0.0,meteohub,2013-02-09 12:02:00,
2013-02-09 07:07:00,29.1,21.2,30.15,WSW,257,4.0,29.0,72,0.00,,,0.00,0.0,meteohub,2013-02-09 12:07:00,
2013-02-09 07:12:00,29.1,21.6,30.16,NNE,18,8.0,29.0,73,0.00,,,0.00,0.0,meteohub,2013-02-09 12:12:00,
2013-02-09 07:17:00,29.1,21.2,30.16,North,5,4.0,29.0,72,0.00,,,0.00,0.0,meteohub,2013-02-09 12:17:00,
2013-02-09 07:22:00,29.1,21.6,30.16,NNW,337,4.0,25.0,73,0.00,,,0.00,7.0,meteohub,2013-02-09 12:22:00,
2013-02-09 07:27:00,29.1,21.2,30.17,North,355,20.0,28.0,72,0.00,,,0.00,11.0,meteohub,2013-02-09 12:27:00,
2013-02-09 07:32:00,29.1,21.2,30.17,North,5,23.0,28.0,72,0.00,,,0.00,14.0,meteohub,2013-02-09 12:32:00,
2013-02-09 07:37:00,29.5,21.2,30.17,NNW,345,11.0,28.0,71,0.00,,,0.00,19.0,meteohub,2013-02-09 12:37:00,
2013-02-09 07:42:00,29.7,21.4,30.17,NNW,336,11.0,26.0,71,0.00,,,0.00,28.0,meteohub,2013-02-09 12:42:00,
2013-02-09 07:47:00,29.7,21.0,30.17,North,9,16.0,24.0,70,0.00,,,0.00,40.0,meteohub,2013-02-09 12:47:00,
2013-02-09 07:52:00,29.8,21.2,30.17,North,355,5.0,30.0,70,0.00,,,0.00,53.0,meteohub,2013-02-09 12:52:00,
2013-02-09 07:57:00,30.0,21.0,30.17,North,5,13.0,30.0,69,0.00,,,0.00,70.0,meteohub,2013-02-09 12:57:00,
2013-02-09 08:02:00,30.2,21.2,30.18,North,11,24.0,28.0,69,0.00,,,0.00,88.0,meteohub,2013-02-09 13:02:00,
2013-02-09 08:07:00,30.4,21.0,30.18,NNE,13,5.0,28.0,68,0.00,,,0.00,104.0,meteohub,2013-02-09 13:07:00,
2013-02-09 08:12:00,30.6,21.2,30.18,NNE,16,4.0,26.0,68,0.00,,,0.00,127.0,meteohub,2013-02-09 13:12:00,
2013-02-09 08:17:00,30.6,21.2,30.18,North,11,17.0,26.0,68,0.00,,,0.00,148.0,meteohub,2013-02-09 13:17:00,
2013-02-09 08:22:00,30.7,21.0,30.19,North,5,5.0,26.0,67,0.00,,,0.00,169.0,meteohub,2013-02-09 13:22:00,
2013-02-09 08:27:00,30.9,20.8,30.19,North,355,16.0,25.0,66,0.00,,,0.00,186.0,meteohub,2013-02-09 13:27:00,
2013-02-09 08:32:00,31.3,21.2,30.19,North,5,9.0,22.0,66,0.00,,,0.00,206.0,meteohub,2013-02-09 13:32:00,
2013-02-09 08:37:00,31.5,21.0,30.19,NNW,343,4.0,22.0,65,0.00,,,0.00,223.0,meteohub,2013-02-09 13:37:00,
2013-02-09 08:42:00,31.6,21.2,30.19,NNE,21,8.0,22.0,65,0.00,,,0.00,239.0,meteohub,2013-02-09 13:42:00,
2013-02-09 08:47:00,31.8,21.0,30.19,North,355,11.0,22.0,64,0.00,,,0.00,257.0,meteohub,2013-02-09 13:47:00,
2013-02-09 08:52:00,32.2,21.4,30.20,North,5,15.0,22.0,64,0.00,,,0.00,274.0,meteohub,2013-02-09 13:52:00,
2013-02-09 08:57:00,32.2,21.4,30.20,North,0,18.0,26.0,64,0.00,,,0.00,288.0,meteohub,2013-02-09 13:57:00,
2013-02-09 09:02:00,32.4,21.2,30.20,NNE,19,14.0,26.0,63,0.00,,,0.00,306.0,meteohub,2013-02-09 14:02:00,
2013-02-09 09:07:00,32.7,21.6,30.20,NNE,13,18.0,26.0,63,0.00,,,0.00,325.0,meteohub,2013-02-09 14:07:00,
2013-02-09 09:12:00,32.7,21.2,30.21,North,355,17.0,31.0,62,0.00,,,0.00,341.0,meteohub,2013-02-09 14:12:00,
2013-02-09 09:17:00,33.1,21.6,30.21,NNE,13,14.0,31.0,62,0.00,,,0.00,315.0,meteohub,2013-02-09 14:17:00,
2013-02-09 09:22:00,33.3,21.2,30.21,NNE,19,17.0,31.0,61,0.00,,,0.00,373.0,meteohub,2013-02-09 14:22:00,
2013-02-09 09:27:00,33.6,21.2,30.21,North,10,15.0,26.0,60,0.00,,,0.00,348.0,meteohub,2013-02-09 14:27:00,
2013-02-09 09:32:00,34.2,20.8,30.21,NNE,23,12.0,28.0,58,0.00,,,0.00,338.0,meteohub,2013-02-09 14:32:00,
2013-02-09 09:37:00,34.5,21.2,30.21,North,0,9.0,28.0,58,0.00,,,0.00,420.0,meteohub,2013-02-09 14:37:00,
2013-02-09 09:42:00,34.7,21.4,30.21,NNE,12,20.0,28.0,58,0.00,,,0.00,434.0,meteohub,2013-02-09 14:42:00,
2013-02-09 09:47:00,35.1,21.4,30.21,NNE,26,20.0,29.0,57,0.00,,,0.00,452.0,meteohub,2013-02-09 14:47:00,
2013-02-09 09:52:00,35.4,21.2,30.22,NNE,20,22.0,29.0,56,0.00,,,0.00,466.0,meteohub,2013-02-09 14:52:00,
2013-02-09 09:57:00,35.8,20.8,30.22,North,5,13.0,29.0,54,0.00,,,0.00,480.0,meteohub,2013-02-09 14:57:00,
2013-02-09 10:02:00,36.0,20.5,30.22,North,5,11.0,27.0,53,0.00,,,0.00,496.0,meteohub,2013-02-09 15:02:00,
2013-02-09 10:07:00,36.3,21.2,30.23,North,11,15.0,27.0,54,0.00,,,0.00,506.0,meteohub,2013-02-09 15:07:00,
2013-02-09 10:14:00,36.9,20.5,30.23,NNE,27,12.0,27.0,51,0.00,,,0.00,527.0,meteohub,2013-02-09 15:14:00,
2013-02-09 10:20:00,37.2,20.8,30.24,NNE,18,4.0,22.0,51,0.00,,,0.00,540.0,meteohub,2013-02-09 15:20:00,
2013-02-09 10:26:00,37.8,20.8,30.24,North,5,4.0,19.0,50,0.00,,,0.00,557.0,meteohub,2013-02-09 15:26:00,
2013-02-09 10:35:00,38.7,21.2,30.24,NNE,28,2.0,19.0,49,0.00,,,0.00,582.0,meteohub,2013-02-09 15:35:00,
2013-02-09 10:41:00,39.0,21.0,30.25,North,5,1.0,20.0,48,0.00,,,0.00,596.0,meteohub,2013-02-09 15:41:00,
2013-02-09 10:47:00,39.6,21.0,30.25,North,11,3.0,20.0,47,0.00,,,0.00,606.0,meteohub,2013-02-09 15:47:00,
2013-02-09 10:52:00,40.1,21.6,30.25,NE,47,18.0,20.0,47,0.00,,,0.00,619.0,meteohub,2013-02-09 15:52:00,
2013-02-09 10:57:00,40.5,21.4,30.25,SW,215,2.0,19.0,46,0.00,,,0.00,629.0,meteohub,2013-02-09 15:57:00,
2013-02-09 11:02:00,40.8,21.2,30.26,SW,232,1.0,19.0,45,0.00,,,0.00,640.0,meteohub,2013-02-09 16:02:00,
2013-02-09 11:07:00,41.5,21.2,30.26,NNW,344,0.0,19.0,44,0.00,,,0.00,649.0,meteohub,2013-02-09 16:07:00,
2013-02-09 11:12:00,42.3,21.4,30.26,North,11,2.0,17.0,43,0.00,,,0.00,661.0,meteohub,2013-02-09 16:12:00,
2013-02-09 11:17:00,42.6,21.2,30.26,NNE,17,0.0,5.0,42,0.00,,,0.00,670.0,meteohub,2013-02-09 16:17:00,
2013-02-09 11:22:00,42.8,20.7,30.25,NNE,17,3.0,6.0,41,0.00,,,0.00,679.0,meteohub,2013-02-09 16:22:00,
2013-02-09 11:27:00,43.2,21.0,30.26,ENE,64,1.0,6.0,41,0.00,,,0.00,684.0,meteohub,2013-02-09 16:27:00,
2013-02-09 11:32:00,43.3,20.7,30.26,NNE,24,1.0,6.0,40,0.00,,,0.00,696.0,meteohub,2013-02-09 16:32:00,
2013-02-09 11:37:00,43.9,19.9,30.26,East,98,1.0,8.0,38,0.00,,,0.00,700.0,meteohub,2013-02-09 16:37:00,
2013-02-09 11:42:00,44.2,19.6,30.26,SSE,159,0.0,8.0,37,0.00,,,0.00,708.0,meteohub,2013-02-09 16:42:00,
2013-02-09 11:47:00,45.0,20.8,30.26,West,271,1.0,8.0,38,0.00,,,0.00,715.0,meteohub,2013-02-09 16:47:00,
2013-02-09 11:52:00,45.1,19.8,30.26,NNE,16,10.0,12.0,36,0.00,,,0.00,721.0,meteohub,2013-02-09 16:52:00,
2013-02-09 12:00:00,45.3,22.5,30.27,NNE,30,0.0,12.0,40,0.00,,,0.00,731.0,meteohub,2013-02-09 17:00:00,
2013-02-09 12:06:00,45.7,20.3,30.27,NNW,338,2.0,12.0,36,0.00,,,0.00,735.0,meteohub,2013-02-09 17:06:00,
2013-02-09 12:12:00,46.0,19.9,30.27,NNE,13,0.0,7.0,35,0.00,,,0.00,737.0,meteohub,2013-02-09 17:12:00,
2013-02-09 12:18:00,46.6,20.3,30.27,NNE,14,1.0,6.0,35,0.00,,,0.00,742.0,meteohub,2013-02-09 17:18:00,
2013-02-09 12:24:00,46.9,19.4,30.27,NE,48,1.0,4.0,33,0.00,,,0.00,745.0,meteohub,2013-02-09 17:24:00,
2013-02-09 12:30:00,47.8,18.7,30.26,NNE,22,3.0,5.0,31,0.00,,,0.00,752.0,meteohub,2013-02-09 17:30:00,
2013-02-09 12:36:00,47.8,17.1,30.25,North,11,5.0,5.0,29,0.00,,,0.00,752.0,meteohub,2013-02-09 17:36:00,
2013-02-09 12:42:00,48.2,18.1,30.25,NNW,339,1.0,6.0,30,0.00,,,0.00,756.0,meteohub,2013-02-09 17:42:00,
2013-02-09 12:47:00,48.7,18.7,30.26,NNE,32,1.0,6.0,30,0.00,,,0.00,758.0,meteohub,2013-02-09 17:47:00,
2013-02-09 12:52:00,49.3,19.2,30.25,NW,323,2.0,6.0,30,0.00,,,0.00,759.0,meteohub,2013-02-09 17:52:00,
2013-02-09 12:57:00,49.5,17.8,30.25,SSE,147,4.0,5.0,28,0.00,,,0.00,761.0,meteohub,2013-02-09 17:57:00,
2013-02-09 13:02:00,49.8,18.0,30.25,SE,134,2.0,7.0,28,0.00,,,0.00,763.0,meteohub,2013-02-09 18:02:00,
2013-02-09 13:07:00,50.4,17.6,30.25,ENE,67,0.0,7.0,27,0.00,,,0.00,763.0,meteohub,2013-02-09 18:07:00,
2013-02-09 13:12:00,50.5,17.8,30.25,NNE,24,3.0,7.0,27,0.00,,,0.00,691.0,meteohub,2013-02-09 18:12:00,
2013-02-09 13:17:00,51.1,17.4,30.25,SE,135,5.0,6.0,26,0.00,,,0.00,671.0,meteohub,2013-02-09 18:17:00,
2013-02-09 13:22:00,51.3,17.6,30.24,NNE,19,0.0,4.0,26,0.00,,,0.00,654.0,meteohub,2013-02-09 18:22:00,
2013-02-09 13:27:00,51.8,20.5,30.24,West,259,2.0,6.0,29,0.00,,,0.00,538.0,meteohub,2013-02-09 18:27:00,
2013-02-09 13:32:00,52.9,20.7,30.24,SE,130,0.0,6.0,28,0.00,,,0.00,533.0,meteohub,2013-02-09 18:32:00,
2013-02-09 13:37:00,53.1,19.0,30.24,SSE,151,1.0,6.0,26,0.00,,,0.00,612.0,meteohub,2013-02-09 18:37:00,
2013-02-09 13:42:00,52.9,22.3,30.24,SW,226,1.0,7.0,30,0.00,,,0.00,427.0,meteohub,2013-02-09 18:42:00,
2013-02-09 13:47:00,52.9,24.6,30.24,ESE,106,2.0,7.0,33,0.00,,,0.00,499.0,meteohub,2013-02-09 18:47:00,
2013-02-09 13:52:00,53.1,24.8,30.24,SSE,149,1.0,9.0,33,0.00,,,0.00,638.0,meteohub,2013-02-09 18:52:00,
2013-02-09 13:57:00,52.5,23.5,30.24,East,80,2.0,9.0,32,0.00,,,0.00,531.0,meteohub,2013-02-09 18:57:00,
2013-02-09 14:02:00,52.2,23.9,30.24,East,100,2.0,9.0,33,0.00,,,0.00,643.0,meteohub,2013-02-09 19:02:00,
2013-02-09 14:07:00,52.3,25.5,30.24,South,169,4.0,10.0,35,0.00,,,0.00,705.0,meteohub,2013-02-09 19:07:00,
2013-02-09 14:12:00,52.5,24.3,30.24,SSE,152,6.0,10.0,33,0.00,,,0.00,557.0,meteohub,2013-02-09 19:12:00,
2013-02-09 14:17:00,52.7,25.2,30.23,SE,141,1.0,10.0,34,0.00,,,0.00,638.0,meteohub,2013-02-09 19:17:00,
2013-02-09 14:22:00,53.1,25.3,30.23,SE,124,4.0,7.0,34,0.00,,,0.00,517.0,meteohub,2013-02-09 19:22:00,
2013-02-09 14:27:00,53.1,23.9,30.23,SW,234,0.0,9.0,32,0.00,,,0.00,367.0,meteohub,2013-02-09 19:27:00,
2013-02-09 14:32:00,52.9,24.6,30.23,SSW,195,4.0,9.0,33,0.00,,,0.00,571.0,meteohub,2013-02-09 19:32:00,
2013-02-09 14:37:00,52.9,23.0,30.22,SW,226,1.0,9.0,31,0.00,,,0.00,74.0,meteohub,2013-02-09 19:37:00,
2013-02-09 14:42:00,52.3,24.1,30.22,South,173,0.0,9.0,33,0.00,,,0.00,294.0,meteohub,2013-02-09 19:42:00,
2013-02-09 14:47:00,52.2,24.6,30.22,ESE,111,1.0,9.0,34,0.00,,,0.00,345.0,meteohub,2013-02-09 19:47:00,
2013-02-09 14:52:00,52.3,24.1,30.22,SSE,160,6.0,7.0,33,0.00,,,0.00,371.0,meteohub,2013-02-09 19:52:00,
2013-02-09 14:57:00,52.0,23.7,30.22,South,186,2.0,7.0,33,0.00,,,0.00,197.0,meteohub,2013-02-09 19:57:00,
2013-02-09 15:02:00,51.4,21.7,30.22,South,182,1.0,7.0,31,0.00,,,0.00,51.0,meteohub,2013-02-09 20:02:00,
2013-02-09 15:07:00,51.6,21.9,30.22,North,350,2.0,7.0,31,0.00,,,0.00,338.0,meteohub,2013-02-09 20:07:00,
2013-02-09 15:12:00,51.4,22.6,30.22,SSE,163,4.0,7.0,32,0.00,,,0.00,188.0,meteohub,2013-02-09 20:12:00,
2013-02-09 15:17:00,51.6,24.1,30.22,East,91,0.0,7.0,34,0.00,,,0.00,65.0,meteohub,2013-02-09 20:17:00,
2013-02-09 15:22:00,52.0,24.4,30.22,ESE,117,0.0,6.0,34,0.00,,,0.00,148.0,meteohub,2013-02-09 20:22:00,
2013-02-09 15:27:00,52.3,24.1,30.22,ESE,111,2.0,6.0,33,0.00,,,0.00,172.0,meteohub,2013-02-09 20:27:00,
2013-02-09 15:32:00,52.3,24.1,30.22,ESE,104,0.0,8.0,33,0.00,,,0.00,318.0,meteohub,2013-02-09 20:32:00,
2013-02-09 15:37:00,52.2,23.2,30.22,ENE,78,0.0,8.0,32,0.00,,,0.00,431.0,meteohub,2013-02-09 20:37:00,
2013-02-09 15:42:00,52.0,23.7,30.21,ESE,105,0.0,7.0,33,0.00,,,0.00,348.0,meteohub,2013-02-09 20:42:00,
2013-02-09 15:47:00,52.2,24.6,30.22,South,169,0.0,6.0,34,0.00,,,0.00,413.0,meteohub,2013-02-09 20:47:00,
2013-02-09 15:52:00,52.3,23.4,30.22,SE,130,0.0,6.0,32,0.00,,,0.00,376.0,meteohub,2013-02-09 20:52:00,
2013-02-09 15:57:00,52.5,23.5,30.21,SSE,166,1.0,6.0,32,0.00,,,0.00,86.0,meteohub,2013-02-09 20:57:00,
2013-02-09 16:02:00,52.2,23.9,30.22,East,94,0.0,6.0,33,0.00,,,0.00,51.0,meteohub,2013-02-09 21:02:00,
2013-02-09 16:07:00,52.0,23.7,30.22,SE,135,2.0,6.0,33,0.00,,,0.00,77.0,meteohub,2013-02-09 21:07:00,
2013-02-09 16:12:00,51.8,24.3,30.22,SSE,157,5.0,5.0,34,0.00,,,0.00,181.0,meteohub,2013-02-09 21:12:00,
2013-02-09 16:17:00,51.8,23.5,30.22,South,175,0.0,6.0,33,0.00,,,0.00,156.0,meteohub,2013-02-09 21:17:00,
2013-02-09 16:22:00,51.8,23.5,30.22,SE,134,0.0,7.0,33,0.00,,,0.00,200.0,meteohub,2013-02-09 21:22:00,
2013-02-09 16:27:00,51.6,23.4,30.22,SE,126,0.0,7.0,33,0.00,,,0.00,91.0,meteohub,2013-02-09 21:27:00,
2013-02-09 16:32:00,51.4,24.1,30.22,SE,142,1.0,6.0,34,0.00,,,0.00,113.0,meteohub,2013-02-09 21:32:00,
2013-02-09 16:37:00,51.3,23.9,30.22,ESE,113,1.0,4.0,34,0.00,,,0.00,58.0,meteohub,2013-02-09 21:37:00,
2013-02-09 16:42:00,51.3,23.9,30.22,East,97,0.0,4.0,34,0.00,,,0.00,33.0,meteohub,2013-02-09 21:42:00,
2013-02-09 16:47:00,50.9,24.3,30.22,ESE,114,0.0,4.0,35,0.00,,,0.00,30.0,meteohub,2013-02-09 21:47:00,
2013-02-09 16:52:00,50.7,22.6,30.22,SE,134,0.0,2.0,33,0.00,,,0.00,30.0,meteohub,2013-02-09 21:52:00,
2013-02-09 16:57:00,50.5,25.2,30.22,SE,134,0.0,6.0,37,0.00,,,0.00,26.0,meteohub,2013-02-09 21:57:00,
2013-02-09 17:02:00,50.2,25.0,30.22,SE,134,0.0,6.0,37,0.00,,,0.00,33.0,meteohub,2013-02-09 22:02:00,
2013-02-09 17:07:00,49.6,24.4,30.22,SE,134,0.0,5.0,37,0.00,,,0.00,28.0,meteohub,2013-02-09 22:07:00,
2013-02-09 17:12:00,49.3,23.5,30.23,SE,134,0.0,1.0,36,0.00,,,0.00,19.0,meteohub,2013-02-09 22:12:00,
2013-02-09 17:17:00,48.7,24.3,30.23,SE,134,0.0,2.0,38,0.00,,,0.00,18.0,meteohub,2013-02-09 22:17:00,
2013-02-09 17:22:00,48.0,24.3,30.23,SE,134,0.0,2.0,39,0.00,,,0.00,16.0,meteohub,2013-02-09 22:22:00,
2013-02-09 17:28:00,47.3,24.3,30.22,SE,134,0.0,1.0,40,0.00,,,0.00,14.0,meteohub,2013-02-09 22:28:00,
2013-02-09 17:34:00,46.8,23.7,30.23,SE,134,0.0,1.0,40,0.00,,,0.00,14.0,meteohub,2013-02-09 22:34:00,
2013-02-09 17:41:00,46.4,23.9,30.23,SE,134,0.0,1.0,41,0.00,,,0.00,12.0,meteohub,2013-02-09 22:41:00,
2013-02-09 17:47:00,46.0,24.3,30.23,SE,134,0.0,1.0,42,0.00,,,0.00,12.0,meteohub,2013-02-09 22:47:00,
2013-02-09 17:52:00,45.7,23.9,30.23,SE,134,0.0,1.0,42,0.00,,,0.00,11.0,meteohub,2013-02-09 22:52:00,
2013-02-09 17:57:00,45.3,23.5,30.23,SE,134,1.0,2.0,42,0.00,,,0.00,7.0,meteohub,2013-02-09 22:57:00,
2013-02-09 18:02:00,45.1,23.4,30.23,SE,134,0.0,2.0,42,0.00,,,0.00,5.0,meteohub,2013-02-09 23:02:00,
2013-02-09 18:08:00,45.0,23.7,30.23,SE,134,1.0,1.0,43,0.00,,,0.00,0.0,meteohub,2013-02-09 23:08:00,
2013-02-09 18:14:00,44.6,23.5,30.23,SE,134,0.0,2.0,43,0.00,,,0.00,0.0,meteohub,2013-02-09 23:14:00,
2013-02-09 18:20:00,44.4,22.8,30.24,SE,134,0.0,2.0,42,0.00,,,0.00,0.0,meteohub,2013-02-09 23:20:00,
2013-02-09 18:26:00,44.2,22.6,30.24,SE,134,1.0,1.0,42,0.00,,,0.00,0.0,meteohub,2013-02-09 23:26:00,
2013-02-09 18:32:00,44.2,22.1,30.24,SE,134,0.0,1.0,41,0.00,,,0.00,0.0,meteohub,2013-02-09 23:32:00,
2013-02-09 18:37:00,44.2,22.6,30.25,SE,134,0.0,1.0,42,0.00,,,0.00,0.0,meteohub,2013-02-09 23:37:00,
2013-02-09 18:42:00,44.2,22.6,30.25,SE,134,0.0,1.0,42,0.00,,,0.00,0.0,meteohub,2013-02-09 23:42:00,
2013-02-09 18:47:00,44.1,22.5,30.25,SE,134,0.0,1.0,42,0.00,,,0.00,0.0,meteohub,2013-02-09 23:47:00,
2013-02-09 18:52:00,43.9,22.3,30.25,SE,134,0.0,1.0,42,0.00,,,0.00,0.0,meteohub,2013-02-09 23:52:00,
2013-02-09 18:59:00,43.5,21.9,30.25,SE,134,0.0,1.0,42,0.00,,,0.00,0.0,meteohub,2013-02-09 23:59:00,
2013-02-09 19:05:00,43.5,21.9,30.25,SE,134,0.0,1.0,42,0.00,,,0.00,0.0,meteohub,2013-02-10 00:05:00,
2013-02-09 19:11:00,43.7,22.1,30.25,SE,134,0.0,1.0,42,0.00,,,0.00,0.0,meteohub,2013-02-10 00:11:00,
2013-02-09 19:17:00,43.7,21.6,30.25,SE,134,0.0,1.0,41,0.00,,,0.00,0.0,meteohub,2013-02-10 00:17:00,
2013-02-09 19:22:00,43.7,21.6,30.25,SE,134,1.0,1.0,41,0.00,,,0.00,0.0,meteohub,2013-02-10 00:22:00,
2013-02-09 19:27:00,43.7,21.6,30.26,SE,134,1.0,2.0,41,0.00,,,0.00,0.0,meteohub,2013-02-10 00:27:00,
2013-02-09 19:32:00,43.7,21.6,30.26,SE,134,0.0,2.0,41,0.00,,,0.00,0.0,meteohub,2013-02-10 00:32:00,
2013-02-09 19:37:00,43.7,21.6,30.26,SE,134,1.0,2.0,41,0.00,,,0.00,0.0,meteohub,2013-02-10 00:37:00,
2013-02-09 19:42:00,43.7,21.6,30.27,SE,134,0.0,1.0,41,0.00,,,0.00,0.0,meteohub,2013-02-10 00:42:00,
2013-02-09 19:47:00,43.7,21.0,30.26,SE,134,0.0,1.0,40,0.00,,,0.00,0.0,meteohub,2013-02-10 00:47:00,
2013-02-09 19:52:00,43.5,20.8,30.27,SE,134,0.0,1.0,40,0.00,,,0.00,0.0,meteohub,2013-02-10 00:52:00,
2013-02-09 19:57:00,43.5,20.8,30.27,SE,134,0.0,2.0,40,0.00,,,0.00,0.0,meteohub,2013-02-10 00:57:00,
2013-02-09 20:02:00,43.5,20.8,30.27,SE,134,1.0,2.0,40,0.00,,,0.00,0.0,meteohub,2013-02-10 01:02:00,
2013-02-09 20:07:00,43.5,20.8,30.27,SE,134,0.0,1.0,40,0.00,,,0.00,0.0,meteohub,2013-02-10 01:07:00,
2013-02-09 20:12:00,43.5,21.4,30.27,SE,134,1.0,1.0,41,0.00,,,0.00,0.0,meteohub,2013-02-10 01:12:00,
2013-02-09 20:17:00,43.5,21.4,30.27,SE,134,0.0,1.0,41,0.00,,,0.00,0.0,meteohub,2013-02-10 01:17:00,
2013-02-09 20:23:00,43.3,21.2,30.27,SE,134,0.0,1.0,41,0.00,,,0.00,0.0,meteohub,2013-02-10 01:23:00,
2013-02-09 20:29:00,43.3,20.7,30.27,SE,134,0.0,1.0,40,0.00,,,0.00,0.0,meteohub,2013-02-10 01:29:00,
2013-02-09 20:35:00,43.3,20.7,30.27,SE,134,1.0,1.0,40,0.00,,,0.00,0.0,meteohub,2013-02-10 01:35:00,
2013-02-09 20:42:00,43.3,20.7,30.28,SE,134,1.0,1.0,40,0.00,,,0.00,0.0,meteohub,2013-02-10 01:42:00,
2013-02-09 20:47:00,43.2,19.9,30.28,SE,134,0.0,1.0,39,0.00,,,0.00,0.0,meteohub,2013-02-10 01:47:00,
2013-02-09 20:52:00,43.2,19.9,30.28,SE,134,0.0,1.0,39,0.00,,,0.00,0.0,meteohub,2013-02-10 01:52:00,
2013-02-09 20:57:00,43.0,19.8,30.28,SE,134,0.0,1.0,39,0.00,,,0.00,0.0,meteohub,2013-02-10 01:57:00,
2013-02-09 21:02:00,43.0,20.3,30.28,SE,134,0.0,1.0,40,0.00,,,0.00,0.0,meteohub,2013-02-10 02:02:00,
2013-02-09 21:07:00,42.8,20.1,30.28,SE,134,1.0,1.0,40,0.00,,,0.00,0.0,meteohub,2013-02-10 02:07:00,
2013-02-09 21:12:00,42.6,19.9,30.28,SE,134,0.0,1.0,40,0.00,,,0.00,0.0,meteohub,2013-02-10 02:12:00,
2013-02-09 21:17:00,42.6,19.4,30.29,SE,134,0.0,1.0,39,0.00,,,0.00,0.0,meteohub,2013-02-10 02:17:00,
2013-02-09 21:22:00,42.6,19.4,30.29,SE,134,0.0,1.0,39,0.00,,,0.00,0.0,meteohub,2013-02-10 02:22:00,
2013-02-09 21:27:00,42.6,18.9,30.29,SE,134,0.0,1.0,38,0.00,,,0.00,0.0,meteohub,2013-02-10 02:27:00,
2013-02-09 21:32:00,42.6,18.9,30.29,SE,134,0.0,1.0,38,0.00,,,0.00,0.0,meteohub,2013-02-10 02:32:00,
2013-02-09 21:37:00,42.6,19.4,30.29,SE,134,0.0,1.0,39,0.00,,,0.00,0.0,meteohub,2013-02-10 02:37:00,
2013-02-09 21:42:00,42.4,19.8,30.29,SE,134,0.0,1.0,40,0.00,,,0.00,0.0,meteohub,2013-02-10 02:42:00,
2013-02-09 21:47:00,42.1,19.6,30.29,SE,134,0.0,1.0,40,0.00,,,0.00,0.0,meteohub,2013-02-10 02:47:00,
2013-02-09 21:52:00,42.1,19.6,30.29,SE,134,0.0,1.0,40,0.00,,,0.00,0.0,meteohub,2013-02-10 02:52:00,
2013-02-09 21:57:00,41.9,19.4,30.29,SE,134,0.0,1.0,40,0.00,,,0.00,0.0,meteohub,2013-02-10 02:57:00,
2013-02-09 22:02:00,41.7,19.2,30.29,SE,134,1.0,1.0,40,0.00,,,0.00,0.0,meteohub,2013-02-10 03:02:00,
2013-02-09 22:07:00,41.5,19.6,30.29,SE,134,0.0,1.0,41,0.00,,,0.00,0.0,meteohub,2013-02-10 03:07:00,
2013-02-09 22:12:00,41.4,19.4,30.29,SE,134,0.0,1.0,41,0.00,,,0.00,0.0,meteohub,2013-02-10 03:12:00,
2013-02-09 22:17:00,41.2,19.2,30.29,SE,134,0.0,1.0,41,0.00,,,0.00,0.0,meteohub,2013-02-10 03:17:00,
2013-02-09 22:22:00,41.4,18.9,30.28,SE,134,0.0,1.0,40,0.00,,,0.00,0.0,meteohub,2013-02-10 03:22:00,
2013-02-09 22:27:00,41.4,18.9,30.28,SE,134,0.0,1.0,40,0.00,,,0.00,0.0,meteohub,2013-02-10 03:27:00,
2013-02-09 22:32:00,41.2,19.2,30.28,SE,134,0.0,1.0,41,0.00,,,0.00,0.0,meteohub,2013-02-10 03:32:00,
2013-02-09 22:37:00,41.2,19.2,30.28,SE,134,0.0,1.0,41,0.00,,,0.00,0.0,meteohub,2013-02-10 03:37:00,
2013-02-09 22:42:00,41.0,18.5,30.28,SE,134,0.0,0.0,40,0.00,,,0.00,0.0,meteohub,2013-02-10 03:42:00,
2013-02-09 22:48:00,40.8,18.9,30.28,SE,134,0.0,1.0,41,0.00,,,0.00,0.0,meteohub,2013-02-10 03:48:00,
2013-02-09 22:54:00,40.8,18.3,30.28,SE,134,1.0,1.0,40,0.00,,,0.00,0.0,meteohub,2013-02-10 03:54:00,
2013-02-09 23:00:00,40.8,17.8,30.28,SE,134,1.0,2.0,39,0.00,,,0.00,0.0,meteohub,2013-02-10 04:00:00,
2013-02-09 23:06:00,40.8,17.8,30.28,SE,134,0.0,2.0,39,0.00,,,0.00,0.0,meteohub,2013-02-10 04:06:00,
2013-02-09 23:12:00,40.8,17.8,30.28,SE,134,0.0,2.0,39,0.00,,,0.00,0.0,meteohub,2013-02-10 04:12:00,
2013-02-09 23:18:00,40.8,18.3,30.28,SE,134,0.0,2.0,40,0.00,,,0.00,0.0,meteohub,2013-02-10 04:18:00,
2013-02-09 23:24:00,40.6,18.9,30.28,SE,134,1.0,2.0,41,0.00,,,0.00,0.0,meteohub,2013-02-10 04:24:00,
2013-02-09 23:30:00,40.6,19.4,30.29,SE,134,1.0,2.0,42,0.00,,,0.00,0.0,meteohub,2013-02-10 04:30:00,
2013-02-09 23:36:00,40.5,19.8,30.29,SE,134,0.0,2.0,43,0.00,,,0.00,0.0,meteohub,2013-02-10 04:36:00,
2013-02-09 23:42:00,40.6,20.5,30.29,SE,134,0.0,1.0,44,0.00,,,0.00,0.0,meteohub,2013-02-10 04:42:00,
2013-02-09 23:47:00,40.6,20.5,30.30,SE,134,0.0,1.0,44,0.00,,,0.00,0.0,meteohub,2013-02-10 04:47:00,
2013-02-09 23:52:00,40.6,20.5,30.30,SE,134,0.0,1.0,44,0.00,,,0.00,0.0,meteohub,2013-02-10 04:52:00,
2013-02-09 23:57:00,40.5,20.8,30.30,SE,134,0.0,1.0,45,0.00,,,0.00,0.0,meteohub,2013-02-10 04:57:00,